User: anonymous   Login
Location: *
(37.5724°S, 58.0067°E)
Time: 14:44:24
(UTC+00:00)
Language:

CZ-2D R/B - Orbit

View from above orbital plane
View from above orbital plane
View from above satellite
View from above satellite

Ground track
Ground track

The orbit data is extracted from the following two-line orbital elements,

1 28738U 05024B   21206.48528797  .00000620  00000-0  39180-4 0  9993
2 28738  97.3598 221.1707 0010541 224.5021 135.5364 15.12470319882310
Epoch (UTC): 25 July 2021 11:38:48
Eccentricity: 0.0010541
inclination: 97.3598°
perigee height: 521 km
apogee height: 536 km
right ascension of ascending node: 221.1707°
argument of perigee: 224.5021°
revolutions per day: 15.12470319
mean anomaly at epoch: 135.5364°
orbit number at epoch: 88231

The dashed part of the orbit path shows where the satellite is in the earth's shadow,  

DLR